OBJECT V, 57185

Orbit data source: Space-Track

You're viewing an uncataloged RSO

Recently launched and/or uncataloged RSOs may have evolving metadata. Metadata may include the following, but is not limited to: Owner, Manufacturer, Bus, Motor, and Mission.

OBJECT V, 57185 is a satellite in SSO that was launched on Tue, 27 Jun 2023 UTC via a SOYUZ-2-1B launch vehicle from the Vostochny Cosmodrome (VOSTO). Unknown objects in Earth's orbit typically refer to objects detected orbiting the Earth but have not yet been identified or cataloged. These objects could be anything from previously untracked satellites, spent rocket stages, debris from satellite collisions, or even natural meteoroids temporarily captured by Earth's gravity.

Loading next visibility...
Identifier
57185, 2023-091V
Orbit
SSO
Country
Flag of TBDTBD
Related business
None
Manufacturer
Unknown
Mission
Operational Commercial Technology
Bus & Motor
Unknown
Mass
Unknown
Launch date (UTC)
2023-06-27 (3 years ago)
Launch vehicle
SOYUZ-2-1B
Launch site
Vostochny Cosmodrome (VOSTO)
Object type
Unknown
Shape & HBR
Box, 0.2 m
Radar Cross Section
0.035 m², Medium (>0.1 m² and < 1m²)

Expand to show TLE details & history
Last TLE update: 8 hours ago

TLE from 8 hours ago
0 OBJECT V
1 57185U 23091V   26256.93214520  .00020198  00000-0  46362-3 0  9992
2 57185  97.4972 330.0215 0007323 113.1160 247.0860 15.42721058178444
Epoch: 2026-09-13T22:22Z
TLE epoch observation values (Epoch: 2026-09-13T22:22:17.345Z)
Latitude
0.00003°
Longitude
1.52952°
Altitude
443.148 km
Speed
7.645 km/s
True Right ascension
22h 00m 05s
True Declination
0° 00' 00"
Sunlit
Object was in full shadow at epoch
Visualization orbit readout
Latitude
Unknown
Longitude
Unknown
Altitude
Unknown
Speed
Unknown
Apparent Right ascension
Unknown
Apparent Declination
Unknown
Sunlit
N/A
Visualization observer readout
Local Sidereal Time
22:40:48
Azimuth
Unknown
Elevation
Unknown
Doppler factor
Unknown
Orbital elements
Apogee altitude
440.011 km
Perigee altitude
430.033 km
Semi-major axis
6,813.159 km
Eccentricity
0.00073
Inclination
97.4972°
RAAN
330.0215°
Arg. of periapsis
113.116°
True anomaly
247.00873°
Mean anomaly
247.086°
Eccentric anomaly
247.04736°
Mean motion
3.85941 °/min
Orbital period
93.28 mins
BSTAR
0.00046362
Loading maneuver chart data...
Computing Atmospheric mass density...
Loading historical data...
Loading historical data...
Loading historical data...
Loading historical data...
Loading historical data...
Loading historical data...
Loading historical data...

Documentation

Showing up to 5 results
|